Regional Weather Roundup
Issued by NWS Portland, ME

Current Version | Previous Version | Text Only | Print | Product List | Glossary Off
Versions: 1 2 3 4 5 6 7 8 9 10 11 12 13 14 15 16 17 18 19 20 21 22 23 24 25 26 27 28 29 30 31 32 33 34 35 36 37 38 39 40 41 42 43 44 45 46 47 48 49 50
313 ASUS41 KGYX 160110 RWRGYX WEATHER ROUNDUP FOR MAINE AND NEW HAMPSHIRE NATIONAL WEATHER SERVICE GRAY ME 800 PM EST TUE JAN 15 2019 MEZ002-005-006-010-012-015-018-020-021-024-026-027-029-160200- MAINE CITY SKY/WX TMP DP RH WIND PRES REMARKS PORTLAND FAIR 25 18 74 CALM 30.08R SANFORD FAIR 21 18 88 CALM 30.07S BAR HARBOR CLOUDY 21 15 78 W3 30.08R WISCASSET CLOUDY 21 18 88 CALM 30.09R ROCKLAND CLOUDY 23 17 78 CALM 30.08R FRYEBURG MOCLDY 22 18 85 CALM 30.04S LEWISTONAUBURN CLOUDY 24 19 81 CALM 30.06S AUGUSTA CLOUDY 26 17 68 CALM 30.06R WATERVILLE CLOUDY 24 17 74 MISG 30.04R BANGOR CLOUDY 23 17 78 CALM 30.06S GREENVILLE N/A 17 9 70 CALM 29.93F MILLINOCKET FAIR 9 5 84 CALM 30.04R HOULTON FAIR 4 0 83 CALM 30.00S PRESQUE ISLE FAIR 3 0 87 CALM 30.01S FRENCHVILLE FAIR 12 1 61 N5 29.96S CARIBOU FAIR 9 3 77 CALM 29.99S $$ NHZ002-005-008-009-011-012-014-160200- NEW HAMPSHIRE CITY SKY/WX TMP DP RH WIND PRES REMARKS PORTSMOUTH CLEAR 27 19 72 W5 30.06S ROCHESTER FAIR 25 18 74 CALM 30.06S NASHUA FAIR 23 20 88 CALM 30.09S MANCHESTER FAIR 26 18 71 CALM 30.07S CONCORD FAIR 18 15 88 CALM 30.07S PLYMOUTH CLOUDY 25 20 82 CALM 30.05S BERLIN CLOUDY 22 18 85 CALM 29.98F WHITEFIELD CLOUDY 23 18 81 CALM 30.00F JAFFREY FAIR 19 17 92 CALM 30.03S KEENE FAIR 20 17 88 CALM 30.07F LEBANON CLOUDY 23 16 74 CALM 30.05S MT WASHINGTON FOG 7 7 100 NW36 N/A VSB 1/8 WCI -18 $$ VTZ005-007-008-160200- VERMONT CITY SKY/WX TMP DP RH WIND PRES REMARKS ST JOHNSBURY N/A 23 18 81 MISG 30.01F MONTPELIER CLOUDY 24 20 84 CALM 30.03F BURLINGTON CLOUDY 28 20 71 S7 30.02F $$ MAZ007-012-024-CTZ003-RIZ002-NYZ038-NYZ072-160200- SOUTHERN NEW ENGLAND AND NY CITY SKY/WX TMP DP RH WIND PRES REMARKS BOSTON FAIR 32 18 56 VRB5 30.10S WORCESTER FAIR 24 15 68 W6 30.04S NANTUCKET FAIR 24 17 74 CALM 30.10S PROVIDENCE FAIR 29 17 61 W5 30.10S HARTFORD FAIR 27 19 72 NW3 30.10S ALBANY CLOUDY 30 19 63 CALM 30.10S NEW YORK CITY FAIR 33 14 45 NE3 30.14S $$ ANZ081-ANZ082-ANZ150-NHZ014-MEZ023>029-160200- COASTAL MARINE OBSERVATIONS STATION/POSITION TIME TEMP WIND PRES WAVE AIR SEA DIR/SP/G HT/PER (UTC) (F) (DEG/KT/KT) (MB) (FT/S) MOUNT DESERT ROC 0000 29 320/ 12/ 14 1018.2R MATINICUS ROCK 0000 31 20/ 7/ 8 1017.5R ISLE OF SHOALS 0000 31 290/ 14/ 15 1018.1R JEFFREYS LEDGE 0038 43 N/A 6/11 CASHES LEDGE BUO 0050 31 40 1018.5R 5/11 $$ .............KEY.............. WCI - WIND CHILL TC - TEMPERATURE IN CELSIUS VSB - VISIBILITY IN MILES HX - HEAT INDEX FAIR- INDICATES FEW OR NO CLOUDS BELOW 12,000 FT, WITH NO SIGNIFICANT WEATHER AND/OR OBSTRUCTIONS TO VISIBILITY.

USA.gov is the U.S. government's official web portal to all federal, state and local government web resources and services.